Location: Newark
(13.0000°N, 151.6000°E)
Time: 01:35:07
(UTC+00:00)

Hubble Space Telescope - Visible Passes

Search period start: 07 April 2020 00:00
Search period end: 17 April 2020 00:00
Orbit: 536 x 540 km, 28.5° (Epoch: 06 April)

Date Brightness Start Highest point End Pass type
(mag) Time Alt. Az. Time Alt. Az. Time Alt. Az.
07 Apr 3.3 09:45:09 10° NW 09:47:06 13° NNW 09:48:18 12° N visible
08 Apr 3.5 09:35:16 10° NNW 09:36:37 11° N 09:37:58 10° N visible
09 Apr 3.6 09:25:44 10° NNW 09:26:10 10° N 09:26:35 10° N visible
14 Apr 3.5 10:13:03 10° NNW 10:13:53 13° NNW 10:13:53 13° NNW visible
15 Apr 3.1 10:02:09 10° NNW 10:03:50 18° NNW 10:03:50 18° NNW visible
16 Apr 2.5 09:51:17 10° NW 09:53:49 25° N 09:53:49 25° N visible
